Location: Marshall
(39.8477°N, 87.1868°W)
Time: 03:53:56
(UTC+00:00)

Envisat - Pass Details

Date: 09 May 2026
Orbit: 761 x 763 km, 98.4° (Epoch: 9 June)

Event Time Altitude Azimuth Distance (km) Brightness Sun altitude
Rises 07:44:54 0° 22° (NNE) 3,231 7.5 -26.3°
Reaches altitude 10° 07:47:24 10° 32° (NNE) 2,300 6.5 -26.1°
Maximum altitude 07:52:01 35° 97° (E) 1,221 4.2 -25.6°
Enters shadow 07:53:36 28° 133° (SE) 1,392 4.2 -25.4°
